FW8528 Weather Reports


Display with metric or nautical units.
time (UTC)temp
F
wind
direction
speed
MPH
gust
MPH
rain 1hr
in
rain 24hr
in
rain mn
in
humidity
%
barometer
mb
20260902170608 56 272 0.0 0.0 0.00 0.08 0.08 99 1005.8
20260902170103 56 272 0.0 0.0 0.00 0.08 0.08 99 1005.4
20260902165602 56 272 0.0 0.0 0.00 0.08 0.08 99 1005.8
20260902165057 56 272 0.0 0.0 0.00 0.08 0.08 99 1005.8
20260902164553 56 273 0.0 1.0 0.00 0.08 0.08 99 1005.8
20260902164051 56 270 1.0 1.0 0.12 0.08 0.08 99 1005.8
20260902163547 56 256 0.0 0.0 0.05 0.07 0.07 99 1005.8
20260902163045 56 256 0.0 0.0 0.07 0.06 0.06 99 1005.8
20260902162539 56 263 0.0 0.0 0.12 0.06 0.06 99 1006.1
20260902162035 56 262 0.0 0.0 0.12 0.05 0.05 99 1006.1
20260902161535 56 251 0.0 0.0 0.07 0.04 0.04 99 1006.1
20260902161031 56 250 0.0 0.0 0.00 0.03 0.03 99 1006.1
20260902160526 56 250 0.0 0.0 0.00 0.03 0.03 99 1006.1
20260902160021 56 263 0.0 0.0 0.00 0.03 0.03 99 1006.1
20260902155514 56 264 0.0 0.0 0.00 0.03 0.03 99 1006.1
20260902155013 56 265 0.0 0.0 0.00 0.03 0.03 99 1006.1
20260902154509 55 265 0.0 0.0 0.05 0.03 0.03 99 1006.1
20260902154003 55 238 0.0 0.0 0.05 0.03 0.03 99 1006.1
20260902153502 55 237 0.0 0.0 0.00 0.02 0.02 99 1006.1
20260902152957 55 236 1.0 1.0 0.00 0.02 0.02 99 1006.1
20260902152454 55 260 0.0 0.0 0.00 0.02 0.02 99 1006.1
20260902151949 55 260 0.0 0.0 0.00 0.02 0.02 99 1006.4
20260902151445 55 260 0.0 0.0 0.00 0.02 0.02 99 1006.4
20260902150944 55 261 0.0 0.0 0.00 0.02 0.02 99 1006.4
20260902150441 55 261 0.0 0.0 0.00 0.02 0.02 99 1006.4
20260902145940 55 228 0.0 0.0 0.00 0.02 0.02 99 1006.8
20260902145436 55 228 0.0 0.0 0.00 0.02 0.02 99 1006.8
20260902144930 55 230 0.0 0.0 0.00 0.02 0.02 99 1006.8
20260902144426 55 215 1.0 1.0 0.00 0.02 0.02 99 1006.8
20260902143926 55 225 0.0 1.0 0.00 0.02 0.02 99 1006.8
20260902143421 55 230 0.0 0.0 0.00 0.02 0.02 99 1006.8
20260902142917 56 226 0.0 0.0 0.00 0.02 0.02 99 1007.2
20260902142413 56 218 0.0 0.0 0.12 0.02 0.02 99 1006.8
20260902141908 56 225 1.0 1.0 0.12 0.02 0.02 98 1006.8
20260902141403 56 234 0.0 0.0 0.00 0.00 0.00 96 1006.8
20260902140902 56 256 0.0 1.0 0.00 0.00 0.00 95 1006.8
20260902140358 56 261 0.0 0.0 0.00 0.00 0.00 95 1006.8
20260902135852 56 261 0.0 0.0 0.00 0.00 0.00 95 1006.8
20260902135348 56 261 0.0 0.0 0.00 0.00 0.00 95 1006.8
20260902134846 56 261 0.0 0.0 0.00 0.00 0.00 94 1006.8
20260902134342 56 261 0.0 0.0 0.00 0.00 0.00 94 1006.8
20260902133837 56 261 0.0 0.0 0.00 0.00 0.00 94 1007.2
20260902133337 56 262 0.0 0.0 0.00 0.00 0.00 94 1006.8
20260902132832 56 261 0.0 0.0 0.00 0.00 0.00 94 1006.8
20260902132327 56 261 0.0 0.0 0.00 0.00 0.00 93 1006.8
20260902131823 57 261 0.0 0.0 0.00 0.00 0.00 92 1006.8
20260902131320 57 266 0.0 0.0 0.00 0.00 0.00 91 1007.2
20260902130819 57 266 0.0 0.0 0.00 0.00 0.00 92 1007.2
20260902130315 57 246 0.0 0.0 0.00 0.00 0.00 93 1006.8
20260902125810 57 265 0.0 0.0 0.00 0.00 0.00 92 1007.2
20260902125306 57 257 0.0 0.0 0.00 0.00 0.00 92 1007.2
20260902124802 57 234 0.0 0.0 0.00 0.00 0.00 92 1007.5
20260902124258 57 255 0.0 0.0 0.00 0.00 0.00 91 1007.5
20260902123758 57 239 0.0 1.0 0.00 0.00 0.00 91 1007.5
20260902123254 57 266 0.0 0.0 0.00 0.00 0.00 90 1007.5
20260902122753 57 268 0.0 0.0 0.00 0.00 0.00 91 1007.2
20260902122249 57 268 0.0 0.0 0.00 0.00 0.00 90 1007.5
20260902121748 57 268 0.0 0.0 0.00 0.00 0.00 91 1007.9
20260902121244 57 258 0.0 0.0 0.00 0.00 0.00 91 1007.5
20260902120739 57 225 0.0 0.0 0.00 0.00 0.00 93 1007.5
20260902120236 58 274 0.0 0.0 0.00 0.00 0.00 90 1007.9
20260902115736 57 267 0.0 0.0 0.00 0.00 0.00 90 1007.5
20260902115232 57 253 0.0 0.0 0.00 0.00 0.00 91 1007.9
20260902114728 57 252 0.0 0.0 0.00 0.00 0.00 90 1007.5
20260902114224 57 266 0.0 0.0 0.00 0.00 0.00 90 1007.9
20260902113724 57 239 0.0 0.0 0.00 0.00 0.00 91 1007.9
20260902113219 58 262 0.0 0.0 0.00 0.00 0.00 90 1007.9
20260902112718 58 262 0.0 0.0 0.00 0.00 0.00 91 1007.9
20260902112216 58 273 0.0 1.0 0.00 0.00 0.00 89 1007.9
20260902111711 58 271 0.0 0.0 0.00 0.00 0.00 89 1007.9
20260902111207 57 264 0.0 0.0 0.00 0.00 0.00 91 1008.2
20260902110702 57 282 0.0 1.0 0.00 0.00 0.00 91 1007.9
20260902110158 57 289 0.0 1.0 0.00 0.00 0.00 89 1007.9
20260902105658 57 246 0.0 0.0 0.00 0.00 0.00 91 1007.9
20260902105153 57 245 0.0 0.0 0.00 0.00 0.00 92 1008.2
20260902104648 58 246 0.0 0.0 0.00 0.00 0.00 91 1008.2
20260902104143 58 247 0.0 0.0 0.00 0.00 0.00 91 1008.2
20260902103637 58 263 0.0 0.0 0.00 0.00 0.00 89 1007.9
20260902103132 58 262 0.0 0.0 0.00 0.00 0.00 90 1008.2
20260902102629 58 261 0.0 0.0 0.00 0.00 0.00 89 1008.2
20260902102126 58 273 0.0 0.0 0.00 0.00 0.00 88 1008.6
20260902101621 58 291 0.0 0.0 0.00 0.00 0.00 87 1008.2
20260902101120 58 244 0.0 0.0 0.00 0.00 0.00 89 1008.2
20260902100615 58 359 1.0 1.0 0.00 0.00 0.00 86 1008.2
20260902100110 58 248 0.0 0.0 0.00 0.00 0.00 89 1008.2
20260902095610 58 247 0.0 0.0 0.00 0.00 0.00 90 1008.2
20260902095108 58 248 0.0 0.0 0.00 0.00 0.00 88 1008.6
20260902094604 58 248 0.0 0.0 0.00 0.00 0.00 89 1008.6
20260902094100 58 261 0.0 0.0 0.00 0.00 0.00 90 1008.6
20260902093559 58 260 0.0 0.0 0.00 0.00 0.00 89 1008.6
20260902093054 58 263 0.0 0.0 0.00 0.00 0.00 89 1008.6
20260902092549 58 266 0.0 0.0 0.00 0.00 0.00 86 1008.9
20260902092044 58 238 0.0 0.0 0.00 0.00 0.00 88 1008.6
20260902091534 58 236 1.0 1.0 0.00 0.00 0.00 88 1008.9
20260902091030 58 268 0.0 0.0 0.00 0.00 0.00 89 1008.6
20260902090526 58 263 0.0 0.0 0.00 0.00 0.00 88 1008.9
20260902090024 58 243 0.0 1.0 0.00 0.00 0.00 89 1008.9
20260902085524 58 244 0.0 0.0 0.00 0.00 0.00 89 1008.9
20260902085020 58 310 1.0 1.0 0.00 0.00 0.00 87 1008.9
20260902084516 58 275 1.0 1.0 0.00 0.00 0.00 88 1008.9
20260902084011 58 267 0.0 0.0 0.00 0.00 0.00 90 1009.2
20260902083507 58 291 0.0 0.0 0.00 0.00 0.00 87 1009.2
20260902083001 58 275 0.0 0.0 0.00 0.00 0.00 88 1008.9
20260902082456 58 260 0.0 0.0 0.00 0.00 0.00 89 1009.2
20260902081953 58 261 0.0 0.0 0.00 0.00 0.00 87 1009.2
20260902081450 58 245 0.0 0.0 0.00 0.00 0.00 88 1009.2
20260902080943 58 239 0.0 1.0 0.00 0.00 0.00 87 1009.2
20260902080440 58 277 0.0 0.0 0.00 0.00 0.00 88 1009.2
20260902075939 58 208 0.0 1.0 0.00 0.00 0.00 89 1009.2
20260902075436 58 216 1.0 1.0 0.00 0.00 0.00 90 1009.2
20260902074931 58 248 0.0 0.0 0.00 0.00 0.00 88 1009.2
20260902074427 58 252 0.0 0.0 0.00 0.00 0.00 89 1008.9
20260902073926 58 230 0.0 1.0 0.00 0.00 0.00 88 1009.6
20260902073423 59 217 1.0 2.0 0.00 0.00 0.00 87 1009.2
20260902072918 59 81 1.0 2.0 0.00 0.00 0.00 86 1009.2
20260902072414 59 22 4.0 6.0 0.00 0.00 0.00 84 1009.6
20260902071911 59 253 0.0 0.0 0.00 0.00 0.00 83 1009.2
20260902071410 59 310 1.0 1.0 0.00 0.00 0.00 83 1009.2
20260902070907 59 46 1.0 1.0 0.00 0.00 0.00 82 1009.2
20260902070402 59 263 1.0 1.0 0.00 0.00 0.00 82 1009.2
20260902065901 59 15 2.0 5.0 0.00 0.00 0.00 82 1009.6
20260902065356 59 276 1.0 1.0 0.00 0.00 0.00 84 1009.2
20260902064851 59 256 0.0 1.0 0.00 0.00 0.00 83 1009.2
20260902064347 59 253 0.0 0.0 0.00 0.00 0.00 85 1009.2
20260902063842 59 19 1.0 2.0 0.00 0.00 0.00 84 1009.2
20260902063337 59 267 0.0 0.0 0.00 0.00 0.00 84 1009.2
20260902062836 59 306 0.0 1.0 0.00 0.00 0.00 84 1009.2
20260902062331 59 17 3.0 5.0 0.00 0.00 0.00 84 1009.6
20260902061830 59 40 2.0 3.0 0.00 0.00 0.00 84 1009.6
20260902061326 60 220 1.0 1.0 0.00 0.00 0.00 83 1009.6
20260902060822 60 353 2.0 2.0 0.00 0.00 0.00 81 1009.6
20260902060318 60 62 2.0 2.0 0.00 0.00 0.00 82 1009.6
20260902055813 59 13 4.0 7.0 0.00 0.00 0.00 84 1009.6
20260902055310 60 247 1.0 1.0 0.00 0.00 0.00 85 1009.6
20260902054810 60 238 1.0 1.0 0.00 0.00 0.00 84 1009.6
20260902054305 60 299 0.0 1.0 0.00 0.00 0.00 84 1009.6
20260902053800 60 265 1.0 2.0 0.00 0.00 0.00 85 1009.6
20260902053255 60 291 0.0 0.0 0.00 0.00 0.00 84 1009.6
20260902052754 60 236 0.0 1.0 0.00 0.00 0.00 84 1009.6
20260902052249 60 260 0.0 1.0 0.00 0.00 0.00 86 1009.6
20260902051744 60 26 3.0 5.0 0.00 0.00 0.00 85 1009.6
20260902051238 59 289 0.0 1.0 0.00 0.00 0.00 86 1009.6
20260902050733 59 27 1.0 1.0 0.00 0.00 0.00 88 1009.6
20260902050228 58 278 0.0 0.0 0.00 0.00 0.00 89 1009.6
20260902045728 59 244 0.0 1.0 0.00 0.00 0.00 89 1009.9
20260902045224 59 278 0.0 0.0 0.00 0.00 0.00 87 1009.6
20260902044720 59 271 0.0 0.0 0.00 0.00 0.00 87 1009.6
20260902044215 59 257 0.0 0.0 0.00 0.00 0.00 87 1009.9
20260902043715 58 322 2.0 2.0 0.00 0.00 0.00 89 1009.9
20260902043211 59 284 0.0 0.0 0.00 0.00 0.00 88 1009.9
20260902042710 59 299 1.0 2.0 0.00 0.00 0.00 88 1009.9
20260902042205 59 271 0.0 0.0 0.00 0.00 0.00 87 1009.9
20260902041700 59 259 0.0 0.0 0.00 0.00 0.00 87 1009.9
20260902041155 59 244 0.0 0.0 0.00 0.00 0.00 86 1009.9
20260902040654 59 251 0.0 0.0 0.00 0.00 0.00 86 1009.9
20260902040150 60 232 0.0 0.0 0.00 0.00 0.00 85 1009.6
20260902035648 60 266 0.0 0.0 0.00 0.00 0.00 84 1009.9
20260902035144 60 285 1.0 1.0 0.00 0.00 0.00 84 1009.6
20260902034643 60 288 0.0 0.0 0.00 0.00 0.00 83 1009.6
20260902034143 60 273 0.0 0.0 0.00 0.00 0.00 83 1009.6
20260902033642 60 309 1.0 2.0 0.00 0.00 0.00 83 1009.6
20260902033137 60 270 0.0 0.0 0.00 0.00 0.00 82 1009.6
20260902032636 61 4 3.0 3.0 0.00 0.00 0.00 81 1009.6
20260902032135 61 312 1.0 1.0 0.00 0.00 0.00 81 1009.6
20260902031630 61 269 2.0 2.0 0.00 0.00 0.00 81 1009.2
20260902031126 60 114 1.0 2.0 0.00 0.00 0.00 81 1009.2
20260902030621 60 67 0.0 0.0 0.00 0.00 0.00 81 1009.2
20260902030120 61 60 1.0 2.0 0.00 0.00 0.00 81 1009.2
20260902025615 61 255 0.0 1.0 0.00 0.00 0.00 81 1009.2
20260902025110 61 229 1.0 1.0 0.00 0.00 0.00 80 1009.2
20260902024606 61 293 0.0 1.0 0.00 0.00 0.00 80 1009.2
20260902024100 62 114 3.0 3.0 0.00 0.00 0.00 80 1009.2
20260902023556 62 233 0.0 0.0 0.00 0.00 0.00 79 1009.6
20260902023051 62 138 0.0 2.0 0.00 0.00 0.00 79 1009.6
20260902022550 62 261 0.0 0.0 0.00 0.00 0.00 80 1009.2
20260902022046 62 226 1.0 1.0 0.00 0.00 0.00 81 1009.2
20260902021541 62 231 0.0 1.0 0.00 0.00 0.00 80 1009.2
20260902021036 62 64 2.0 3.0 0.00 0.00 0.00 80 1009.6
20260902020532 62 250 0.0 0.0 0.00 0.00 0.00 82 1009.2
20260902020028 63 238 0.0 0.0 0.00 0.00 0.00 78 1009.6
20260902015524 62 207 1.0 1.0 0.00 0.00 0.00 80 1009.2
20260902015019 62 256 0.0 0.0 0.00 0.00 0.00 79 1009.6
20260902014515 63 263 0.0 0.0 0.00 0.00 0.00 78 1009.6
20260902014010 63 352 1.0 2.0 0.00 0.00 0.00 77 1009.2
20260902013505 63 327 1.0 2.0 0.00 0.00 0.00 77 1009.2
20260902013000 63 2 1.0 1.0 0.00 0.00 0.00 77 1009.2
20260902012455 64 233 1.0 1.0 0.00 0.00 0.00 78 1009.6
20260902011951 64 336 2.0 2.0 0.00 0.00 0.00 76 1008.9
20260902011446 64 303 1.0 1.0 0.00 0.00 0.00 75 1009.2
20260902010946 64 272 0.0 0.0 0.00 0.00 0.00 75 1008.9
20260902010441 65 90 1.0 1.0 0.00 0.00 0.00 75 1009.2
20260902005940 64 55 1.0 1.0 0.00 0.00 0.00 75 1009.2
20260902005439 64 219 1.0 1.0 0.00 0.00 0.00 77 1008.9
20260902004936 64 281 0.0 0.0 0.00 0.00 0.00 77 1008.9
20260902004435 64 331 1.0 1.0 0.00 0.00 0.00 77 1009.2
20260902003931 64 264 2.0 3.0 0.00 0.00 0.00 78 1009.2
20260902003430 65 267 2.0 2.0 0.00 0.00 0.00 77 1008.9
20260902002926 64 247 0.0 0.0 0.00 0.00 0.00 77 1009.2
20260902002421 65 320 1.0 1.0 0.00 0.00 0.00 76 1008.9
20260902001920 65 276 0.0 1.0 0.00 0.00 0.00 75 1009.2
20260902001415 66 280 1.0 1.0 0.00 0.00 0.00 74 1009.2
20260902000911 67 13 4.0 5.0 0.00 0.00 0.00 72 1009.2
20260902000407 67 265 0.0 0.0 0.00 0.00 0.00 71 1009.2
20260901235901 67 289 1.0 1.0 0.00 0.00 0.00 72 1009.2
20260901235401 66 265 1.0 2.0 0.00 0.00 0.00 73 1009.2
20260901234856 66 249 0.0 0.0 0.00 0.00 0.00 74 1009.2
20260901234349 66 297 0.0 1.0 0.00 0.00 0.00 74 1009.2
20260901233845 66 279 1.0 1.0 0.00 0.00 0.00 74 1009.6
20260901233340 67 238 0.0 0.0 0.00 0.00 0.00 73 1009.2
20260901232836 67 318 2.0 2.0 0.00 0.00 0.00 72 1009.2
20260901232331 69 60 4.0 5.0 0.00 0.00 0.00 69 1009.2
20260901231827 70 94 3.0 5.0 0.00 0.00 0.00 67 1009.2
20260901231323 70 268 0.0 1.0 0.00 0.00 0.00 66 1008.9
20260901230819 72 227 1.0 1.0 0.00 0.00 0.00 63 1008.9
20260901230319 72 29 4.0 7.0 0.00 0.00 0.00 62 1008.9
20260901225814 71 311 3.0 7.0 0.00 0.00 0.00 65 1008.9
20260901225314 71 311 1.0 1.0 0.00 0.00 0.00 65 1008.9
20260901224809 71 103 3.0 5.0 0.00 0.00 0.00 65 1008.9
20260901224305 71 64 1.0 1.0 0.00 0.00 0.00 66 1008.9
20260901223801 71 200 1.0 1.0 0.00 0.00 0.00 64 1008.6
20260901223256 72 351 1.0 2.0 0.00 0.00 0.00 62 1008.6
20260901222752 72 288 2.0 2.0 0.00 0.00 0.00 63 1008.9
20260901222248 73 268 1.0 1.0 0.00 0.00 0.00 60 1008.9
20260901221744 74 209 1.0 2.0 0.00 0.00 0.00 58 1008.6
20260901221239 73 298 1.0 2.0 0.00 0.00 0.00 59 1008.9
20260901220738 71 200 2.0 2.0 0.00 0.00 0.00 59 1008.6
20260901220233 74 342 7.0 9.0 0.00 0.00 0.00 57 1008.9
20260901215731 73 87 1.0 2.0 0.00 0.00 0.00 61 1008.9
20260901215226 71 309 1.0 1.0 0.00 0.00 0.00 62 1008.9
20260901214724 70 219 1.0 1.0 0.00 0.00 0.00 64 1008.6
20260901214218 70 305 2.0 2.0 0.00 0.00 0.00 64 1008.9
20260901213718 71 293 3.0 5.0 0.00 0.00 0.00 64 1008.9
20260901213213 72 106 1.0 1.0 0.00 0.00 0.00 64 1008.9
20260901212712 70 266 2.0 3.0 0.00 0.00 0.00 65 1008.9
20260901212208 70 241 1.0 2.0 0.00 0.00 0.00 66 1008.9
20260901211708 69 0 2.0 2.0 0.00 0.00 0.00 67 1008.9
20260901211205 69 10 2.0 2.0 0.00 0.00 0.00 69 1008.9
20260901210700 72 340 1.0 2.0 0.00 0.00 0.00 65 1008.9
20260901210156 73 302 1.0 2.0 0.00 0.00 0.00 63 1008.9
20260901205652 70 268 1.0 1.0 0.00 0.00 0.00 67 1008.9
20260901205152 70 323 4.0 5.0 0.00 0.00 0.00 67 1009.2
20260901204648 70 243 0.0 0.0 0.00 0.00 0.00 69 1009.2
20260901204143 70 118 2.0 5.0 0.00 0.00 0.00 67 1009.2
20260901203643 70 253 0.0 1.0 0.00 0.00 0.00 69 1009.2
20260901203138 69 294 1.0 2.0 0.00 0.00 0.00 70 1009.2
20260901202637 69 276 1.0 1.0 0.00 0.00 0.00 70 1009.2
20260901202133 69 57 3.0 5.0 0.00 0.00 0.00 72 1009.2
20260901201629 68 63 3.0 6.0 0.00 0.00 0.00 72 1009.2
20260901201128 69 338 1.0 1.0 0.00 0.00 0.00 71 1009.6
20260901200627 71 23 3.0 3.0 0.00 0.00 0.00 70 1009.2
20260901200123 70 144 2.0 3.0 0.00 0.00 0.00 70 1008.9
20260901195621 71 70 1.0 1.0 0.00 0.00 0.00 69 1009.6
20260901195120 70 355 3.0 5.0 0.00 0.00 0.00 70 1009.2
20260901194616 71 286 1.0 1.0 0.00 0.00 0.00 69 1009.2
20260901194111 71 22 1.0 2.0 0.00 0.00 0.00 70 1008.9
20260901193607 70 346 1.0 1.0 0.00 0.00 0.00 70 1009.2
20260901193101 69 293 1.0 1.0 0.00 0.00 0.00 71 1009.2
20260901192556 70 303 0.0 1.0 0.00 0.00 0.00 70 1009.2
20260901192051 69 246 0.0 0.0 0.00 0.00 0.00 70 1009.2
20260901191547 69 58 1.0 1.0 0.00 0.00 0.00 71 1009.2
20260901191044 70 255 2.0 3.0 0.00 0.00 0.00 70 1009.2
20260901190539 69 144 2.0 2.0 0.00 0.00 0.00 71 1009.6
20260901190038 68 270 1.0 1.0 0.00 0.00 0.00 74 1009.6
20260901185536 68 278 1.0 1.0 0.00 0.00 0.00 74 1009.6
20260901185036 68 244 1.0 2.0 0.00 0.00 0.00 73 1009.6
20260901184531 66 134 1.0 2.0 0.00 0.00 0.00 76 1009.6
20260901184027 67 46 1.0 1.0 0.00 0.00 0.00 77 1009.6
20260901183521 67 300 0.0 1.0 0.00 0.00 0.00 76 1009.6
20260901183016 66 300 0.0 1.0 0.00 0.00 0.00 77 1009.6
20260901182513 66 183 1.0 1.0 0.00 0.00 0.00 79 1009.2
20260901182007 65 2 2.0 3.0 0.00 0.00 0.00 78 1009.6
20260901181507 65 167 2.0 3.0 0.00 0.00 0.00 79 1009.6
20260901181006 65 288 3.0 5.0 0.00 0.00 0.00 79 1009.6
20260901180505 66 184 0.0 0.0 0.00 0.00 0.00 79 1009.6
20260901180004 64 241 0.0 0.0 0.00 0.00 0.00 81 1009.6
20260901175458 64 6 2.0 2.0 0.00 0.00 0.00 80 1009.6
20260901174953 65 238 0.0 1.0 0.00 0.00 0.00 80 1009.6
20260901174449 64 358 1.0 1.0 0.00 0.00 0.00 81 1009.6
20260901173944 64 298 3.0 3.0 0.00 0.00 0.00 81 1009.6
20260901173440 64 20 3.0 3.0 0.00 0.00 0.00 81 1009.6
20260901172936 64 215 0.0 1.0 0.00 0.00 0.00 83 1009.2
20260901172431 64 205 1.0 1.0 0.00 0.00 0.00 83 1009.6
20260901171929 64 270 0.0 1.0 0.00 0.00 0.00 83 1009.2
20260901171427 63 270 0.0 1.0 0.00 0.00 0.00 84 1009.6
20260901170927 64 241 2.0 2.0 0.00 0.00 0.00 84 1009.2